Content
SEND FEEDBACK

Daily
Averages
Monthly
Summary
United States of America

MILLER, NEBRASKA


Home > North America > United States > Nebraska
Elevation: 2310 feet     Latitude: 40 56N     Longitude: 099 24W

WEATHER
 
SELECT A DAY
Number of Records: 437,716;   Date Range: 10/21/96 - 8/28/14
 
SHARE

PRINT THIS DATA

[ ← Previous Day ]
WEATHER ALMANAC - JANUARY 30, 2013
[ Next Day → ]
[ °C ]   °F
Weather ElementAverageHighLow
Temperature24.3 °F32.4 °F (4:55 pm)17.8 °F (11:15 pm)
Dewpoint15.8 °F24.8 °F (12:35 am)11.8 °F (9:55 am)
Humidity71.5 %88 % (10:15 pm)45 % (3:55 pm)
Barometer29.86 in29.92 in (9:55 am)29.79 in (12:35 am)
Wind Speed13.7 mph31.1 mph (1:55 am)
Wind Gust36.8 mph (1:55 am)
Weather ElementAverage
Visibility10 mi
Wind DirectionW (268.3 °)

Weather ElementTotal
Precipitation---
Heating Degree Days39.9 (Base 65)
Averaged from 71 records on January 30, 2013
WEATHER CONDITIONS BREAKOUT
WIND DIRECTION BREAKOUT
WEATHER BY HOUR - JANUARY 30, 2013
[ °C ]   °F
Local TimeTemperatureDewpointHumidityBarometerVisibilityWind DirectionWind SpeedGust SpeedPrecipitationEventsConditions
12:35 AM28.9 °F24.8 °F84 %29.79 in10.0 miNorth (350°)26.5 mph29.9 mphOvercast
12:55 AM28.9 °F24.4 °F83 %29.79 in10.0 miNorth (350°)23.0 mph29.9 mphOvercast
1:15 AM29.1 °F24.8 °F84 %29.79 in10.0 miNorth (350°)23.0 mph28.8 mphOvercast
1:35 AM29.3 °F24.6 °F83 %29.79 in10.0 miNorth (350°)20.7 mph25.3 mphOvercast
1:55 AM27.9 °F23.0 °F82 %29.81 in10.0 miNorth (350°)31.1 mph36.8 mphOvercast
2:15 AM27.5 °F22.8 °F83 %29.82 in10.0 miNorth (350°)20.7 mph35.7 mphOvercast
2:35 AM26.4 °F22.3 °F84 %29.83 in10.0 miNorth (350°)23.0 mph32.2 mphOvercast
2:55 AM25.3 °F20.1 °F81 %29.85 in10.0 miNNW (340°)27.6 mph35.7 mphOvercast
3:15 AM23.5 °F18.7 °F82 %29.87 in10.0 miNorth (350°)26.5 mph36.8 mphOvercast
3:35 AM22.3 °F18.3 °F85 %29.88 in10.0 miNorth (350°)20.7 mph34.5 mphOvercast
3:55 AM22.1 °F18.0 °F84 %29.88 in10.0 miNNW (340°)18.4 mph27.6 mphOvercast
4:15 AM22.1 °F17.4 °F82 %29.89 in10.0 miNNW (340°)19.6 mph27.6 mphOvercast
4:35 AM22.1 °F16.3 °F79 %29.89 in10.0 miNNW (340°)27.6 mph35.7 mphOvercast
4:55 AM21.7 °F16.5 °F80 %29.90 in10.0 miNorth (350°)20.7 mphSnowLight Snow
5:15 AM21.7 °F16.7 °F81 %29.90 in10.0 miNNW (340°)17.3 mphSnowLight Snow
5:35 AM21.7 °F16.7 °F81 %29.89 in7.0 miNNW (340°)18.4 mph25.3 mphSnowLight Snow
5:55 AM21.2 °F16.3 °F82 %29.89 in10.0 miNorth (350°)17.3 mphSnowLight Snow
6:15 AM21.0 °F14.7 °F77 %29.89 in10.0 miNorth (350°)19.6 mph26.5 mphOvercast
6:35 AM20.7 °F13.8 °F75 %29.90 in10.0 miNNW (340°)20.7 mphOvercast
6:55 AM20.7 °F14.7 °F78 %29.90 in10.0 miNNW (330°)12.7 mphOvercast
7:15 AM20.7 °F14.5 °F77 %29.90 in10.0 miNNW (340°)16.1 mphOvercast
7:35 AM20.7 °F14.4 °F77 %29.90 in10.0 miNNW (330°)15.0 mph18.4 mphOvercast
7:55 AM20.8 °F14.5 °F77 %29.91 in10.0 miNW (320°)13.8 mphOvercast
8:15 AM20.7 °F14.5 °F77 %29.91 in10.0 miNW (320°)17.3 mphSnowLight Snow
8:35 AM19.4 °F14.0 °F80 %29.91 in10.0 miNW (320°)16.1 mphOvercast
8:55 AM19.4 °F13.1 °F76 %29.91 in10.0 miNW (310°)15.0 mph24.2 mphMostly Cloudy
9:15 AM19.4 °F13.3 °F77 %29.91 in10.0 miNW (310°)16.1 mphScattered Clouds
9:35 AM19.4 °F12.9 °F76 %29.91 in10.0 miNW (310°)19.6 mphClear
9:55 AM18.9 °F11.8 °F74 %29.92 in10.0 miNW (310°)18.4 mphClear
10:15 AM19.4 °F12.2 °F74 %29.92 in10.0 miWNW (300°)17.3 mphClear
10:35 AM19.9 °F12.2 °F72 %29.91 in10.0 miNW (310°)17.3 mph20.7 mphClear
10:55 AM20.7 °F12.2 °F70 %29.91 in10.0 miNW (320°)15.0 mphClear
11:15 AM21.7 °F13.3 °F70 %29.91 in10.0 miNW (320°)15.0 mph18.4 mphClear
11:35 AM22.1 °F12.7 °F67 %29.91 in10.0 miNW (320°)15.0 mphClear
11:55 AM23.0 °F13.1 °F66 %29.90 in10.0 miNW (320°)16.1 mphClear
12:15 PM24.3 °F14.0 °F65 %29.90 in10.0 miNW (310°)15.0 mphClear
12:35 PM24.8 °F13.8 °F63 %29.88 in10.0 miNNW (330°)13.8 mphClear
12:55 PM25.9 °F14.5 °F62 %29.88 in10.0 miNW (320°)15.0 mph19.6 mphClear
1:15 PM25.7 °F13.5 °F60 %29.86 in10.0 miNW (320°)9.2 mph21.9 mphClear
1:35 PM26.4 °F13.3 °F58 %29.85 in10.0 miWNW (300°)13.8 mphClear
1:55 PM27.3 °F14.0 °F57 %29.85 in10.0 miNNW (330°)12.7 mph18.4 mphClear
2:15 PM27.9 °F13.3 °F54 %29.84 in10.0 miNW (310°)17.3 mphClear
2:35 PM28.4 °F13.5 °F54 %29.84 in10.0 miNW (310°)13.8 mph20.7 mphClear
2:55 PM29.7 °F14.0 °F52 %29.84 in10.0 miWest (280°)16.1 mphClear
3:15 PM30.2 °F13.5 °F50 %29.83 in10.0 miNW (320°)15.0 mphClear
3:35 PM30.9 °F13.5 °F48 %29.83 in10.0 miWNW (300°)12.7 mph16.1 mphClear
3:55 PM31.8 °F12.7 °F45 %29.82 in10.0 miWNW (290°)15.0 mph21.9 mphClear
4:15 PM32.0 °F13.3 °F46 %29.82 in10.0 miWNW (300°)15.0 mph19.6 mphClear
4:35 PM32.2 °F13.1 °F45 %29.82 in10.0 miWNW (290°)11.5 mphClear
4:55 PM32.4 °F13.3 °F45 %29.82 in10.0 miWNW (290°)11.5 mphClear
5:15 PM32.0 °F13.5 °F46 %29.81 in10.0 miWNW (300°)11.5 mphClear
5:35 PM31.5 °F14.7 °F50 %29.82 in10.0 miWNW (300°)11.5 mphClear
5:55 PM29.8 °F14.9 °F54 %29.81 in10.0 miWNW (300°)10.4 mphClear
6:15 PM27.7 °F15.6 °F61 %29.82 in10.0 miWNW (300°)5.8 mphClear
6:35 PM26.2 °F15.8 °F65 %29.82 in10.0 miWNW (290°)6.9 mphScattered Clouds
6:55 PM25.5 °F16.0 °F67 %29.82 in10.0 miWest (270°)6.9 mphScattered Clouds
7:15 PM24.6 °F16.5 °F71 %29.83 in10.0 miWest (260°)6.9 mphMostly Cloudy
7:35 PM26.2 °F17.6 °F70 %29.83 in10.0 miWest (260°)4.6 mphOvercast
7:55 PM25.5 °F16.7 °F69 %29.82 in10.0 miWNW (290°)4.6 mphMostly Cloudy
8:15 PM24.1 °F16.7 °F73 %29.83 in10.0 miCalmScattered Clouds
8:35 PM23.9 °F17.6 °F77 %29.82 in10.0 miCalmMostly Cloudy
8:55 PM24.3 °F18.3 °F78 %29.82 in10.0 miCalmMostly Cloudy
9:15 PM24.1 °F17.4 °F76 %29.82 in10.0 miCalmScattered Clouds
9:35 PM22.5 °F16.9 °F79 %29.83 in10.0 miCalmScattered Clouds
9:55 PM22.5 °F17.1 °F80 %29.83 in10.0 miCalmScattered Clouds
10:15 PM19.4 °F16.3 °F88 %29.84 in10.0 miCalmScattered Clouds
10:35 PM20.1 °F16.0 °F84 %29.83 in10.0 miNE (50°)4.6 mphScattered Clouds
10:55 PM19.4 °F15.6 °F85 %29.84 in10.0 miNE (40°)3.5 mphClear
11:15 PM17.8 °F14.2 °F86 %29.84 in10.0 miEast (90°)3.5 mphClear
11:35 PM18.1 °F14.7 °F86 %29.85 in10.0 miCalmScattered Clouds
11:55 PM18.3 °F15.3 °F88 %29.86 in10.0 miNNE (30°)4.6 mphMostly Cloudy
Hourly data recorded from KLXN, located miles away from Miller, Nebraska







STORIES FROM OUR PARTNERS